This demonstration page uses our WeatherBlox Daily Observations layout. Learn more.

Left ArrowRight Arrow

Hourly Observations for April 25, 2019

Temp ( °F °C ) Dew Point ( °F °C ) Humidity (%) Winds ( mph kmh ) Pressure ( in mb ) Visibility ( mi km ) Precip ( " mm )
12:53 am 00:53 Clear 64 17.8 53 11.7 68 68 Calm 29.94 1014 10 16 0.00 0.00
1:53 am 01:53 Clear 63 17.2 54 12.2 73 73 SW 3 6 29.93 1014 10 16 0.00 0.00
2:53 am 02:53 Clear 63 17.2 55 12.8 76 76 SW 5 7 29.92 1013 10 16 0.00 0.00
3:53 am 03:53 Clear 61 16.1 55 12.8 81 81 SW 3 6 29.92 1013 10 16 0.00 0.00
4:53 am 04:53 Clear 60 15.6 56 13.3 86 86 Calm 29.91 1013 10 16 0.00 0.00
5:53 am 05:53 Clear 60 15.6 56 13.3 86 86 Calm 29.92 1013 10 16 0.00 0.00
6:53 am 06:53 Clear 60 15.6 57 13.9 90 90 SSW 3 6 29.93 1013 10 16 0.00 0.00
7:53 am 07:53 Sunny 61 16.1 58 14.4 90 90 S 6 9 29.93 1013 10 16 0.00 0.00
8:53 am 08:53 Sunny 63 17.2 59 15 87 87 WSW 5 7 29.94 1014 10 16 0.00 0.00
9:53 am 09:53 Sunny 64 17.8 61 16.1 90 90 SSW 7 11 29.94 1014 10 16 0.00 0.00
10:53 am 10:53 Sunny 69 20.6 61 16.1 76 76 SSW 5 7 29.93 1014 10 16 0.00 0.00
11:53 am 11:53 Mostly Sunny 72 22.2 62 16.7 71 71 S 6 9 29.91 1013 10 16 0.00 0.00
12:53 pm 12:53 Sunny 74 23.3 61 16.1 64 64 SSE 8 13 29.89 1012 10 16 0.00 0.00
1:53 pm 13:53 Mostly Sunny 74 23.3 61 16.1 64 64 S 8 13 29.88 1012 10 16 0.00 0.00
2:53 pm 14:53 Mostly Sunny 74 23.3 61 16.1 64 64 S 10 17 29.88 1012 10 16 0.00 0.00
3:53 pm 15:53 Mostly Cloudy 74 23.3 59 15 60 60 SSW 13 20 29.88 1012 10 16 0.00 0.00
4:53 pm 16:53 Partly Cloudy 75 23.9 59 15 58 58 SSW 12 19 29.86 1011 10 16 0.00 0.00
5:53 pm 17:53 Mostly Sunny 74 23.3 60 15.6 62 62 S 10 17 29.85 1011 10 16 0.00 0.00
6:53 pm 18:53 Sunny 73 22.8 59 15 62 62 S 10 17 29.83 1010 10 16 0.00 0.00
7:44 pm 19:44 Mostly Cloudy with Heavy Rain 62 16.7 59 15 90 90 W 13 20 29.87 1011 2 3 0.02 0.51
7:51 pm 19:51 Cloudy with Light Rain 61 16 61 16 100 100 SSW 5 7 29.86 1011 3 5 0.06 1.52
7:53 pm 19:53 Cloudy with Light Rain 62 16.7 60 15.6 93 93 SSW 3 6 29.86 1011 5 8 0.07 1.78
8:53 pm 20:53 Mostly Cloudy 63 17.2 61 16.1 93 93 WSW 3 6 29.84 1010 10 16 0.04 1.02
9:53 pm 21:53 Clear 62 16.7 61 16.1 96 96 SSE 6 9 29.84 1011 10 16 0.00 0.00
10:53 pm 22:53 Mostly Clear 62 16.7 60 15.6 93 93 Calm 29.83 1010 10 16 0.00 0.00
11:53 pm 23:53 Mostly Cloudy 62 16.7 60 15.6 93 93 S 3 6 29.80 1009 10 16 0.00 0.03

Powered by AerisWeather